Year,Month,Day,Hour,Minute,Value (Times are PST for temperature in C)
2009,08,01,00,00,18.10
2009,08,01,00,01,18.20
2009,08,01,00,02,18.20
2009,08,01,00,03,18.20
2009,08,01,00,04,18.20
2009,08,01,00,05,18.30
2009,08,01,00,06,18.30
2009,08,01,00,07,18.30
2009,08,01,00,08,18.30
2009,08,01,00,09,18.30
2009,08,01,00,10,18.30
2009,08,01,00,11,18.30
2009,08,01,00,12,18.30
2009,08,01,00,13,18.30
2009,08,01,00,14,18.30
2009,08,01,00,15,18.30
2009,08,01,00,16,18.30
2009,08,01,00,17,18.30
2009,08,01,00,18,18.30
2009,08,01,00,19,18.30
2009,08,01,00,20,18.30
2009,08,01,00,21,18.40
2009,08,01,00,22,18.40
2009,08,01,00,23,18.40
2009,08,01,00,24,18.40
2009,08,01,00,25,18.40
2009,08,01,00,26,18.40
2009,08,01,00,27,18.40
2009,08,01,00,28,18.40
2009,08,01,00,29,18.40
2009,08,01,00,30,18.40
2009,08,01,00,31,18.40
2009,08,01,00,32,18.40
2009,08,01,00,33,18.40
2009,08,01,00,34,18.50
2009,08,01,00,35,18.50
2009,08,01,00,36,18.50
2009,08,01,00,37,18.60
2009,08,01,00,38,18.60
2009,08,01,00,39,18.60
2009,08,01,00,40,18.60
2009,08,01,00,41,18.60
2009,08,01,00,42,18.70
2009,08,01,00,43,18.70
2009,08,01,00,44,18.70
2009,08,01,00,45,18.70
2009,08,01,00,46,18.70
2009,08,01,00,47,18.70
2009,08,01,00,48,18.80
2009,08,01,00,49,18.80
2009,08,01,00,50,18.80
2009,08,01,00,51,18.80
2009,08,01,00,52,18.90
2009,08,01,00,53,18.90
2009,08,01,00,54,18.90
2009,08,01,00,55,18.90
2009,08,01,00,56,18.90
2009,08,01,00,57,18.90
2009,08,01,00,58,18.90
2009,08,01,00,59,18.90
2009,08,01,01,00,18.90
2009,08,01,01,01,18.90
2009,08,01,01,02,18.90
2009,08,01,01,03,18.90
2009,08,01,01,04,19.00
2009,08,01,01,05,19.00
2009,08,01,01,06,19.10
2009,08,01,01,07,19.10
2009,08,01,01,08,19.10
2009,08,01,01,09,19.10
2009,08,01,01,10,19.10
2009,08,01,01,11,19.20
2009,08,01,01,12,19.20
2009,08,01,01,13,19.20
2009,08,01,01,14,19.20
2009,08,01,01,15,19.20
2009,08,01,01,16,19.20
2009,08,01,01,17,19.20
2009,08,01,01,18,19.20
2009,08,01,01,19,19.20
2009,08,01,01,20,19.20
2009,08,01,01,21,19.20
2009,08,01,01,22,19.20
2009,08,01,01,23,19.20
2009,08,01,01,24,19.20
2009,08,01,01,25,19.20
2009,08,01,01,26,19.20
2009,08,01,01,27,19.10
2009,08,01,01,28,19.10
2009,08,01,01,29,19.10
2009,08,01,01,30,19.10
2009,08,01,01,31,19.10
2009,08,01,01,32,19.00
2009,08,01,01,33,19.00
2009,08,01,01,34,19.00
2009,08,01,01,35,18.90
2009,08,01,01,36,18.90
2009,08,01,01,37,18.90
2009,08,01,01,38,18.90
2009,08,01,01,39,18.80
2009,08,01,01,40,18.80
2009,08,01,01,41,18.80
2009,08,01,01,42,18.70
2009,08,01,01,43,18.70
2009,08,01,01,44,18.70
2009,08,01,01,45,18.70
2009,08,01,01,46,18.60
2009,08,01,01,47,18.60
2009,08,01,01,48,18.60
2009,08,01,01,49,18.60
2009,08,01,01,50,18.60
2009,08,01,01,51,18.60
2009,08,01,01,52,18.50
2009,08,01,01,53,18.50
2009,08,01,01,54,18.50
2009,08,01,01,55,18.50
2009,08,01,01,56,18.50
2009,08,01,01,57,18.50
2009,08,01,01,58,18.50
2009,08,01,01,59,18.50
2009,08,01,02,00,18.40
2009,08,01,02,01,18.40
2009,08,01,02,02,18.50
2009,08,01,02,03,18.50
2009,08,01,02,04,18.50
2009,08,01,02,05,18.60
2009,08,01,02,06,18.60
2009,08,01,02,07,18.60
2009,08,01,02,08,18.60
2009,08,01,02,09,18.60
2009,08,01,02,10,18.60
2009,08,01,02,11,18.60
2009,08,01,02,12,18.60
2009,08,01,02,13,18.50
2009,08,01,02,14,18.50
2009,08,01,02,15,18.50
2009,08,01,02,16,18.50
2009,08,01,02,17,18.50
2009,08,01,02,18,18.50
2009,08,01,02,19,18.50
2009,08,01,02,20,18.50
2009,08,01,02,21,18.50
2009,08,01,02,22,18.40
2009,08,01,02,23,18.40
2009,08,01,02,24,18.40
2009,08,01,02,25,18.40
2009,08,01,02,26,18.40
2009,08,01,02,27,18.40
2009,08,01,02,28,18.40
2009,08,01,02,29,18.40
2009,08,01,02,30,18.40
2009,08,01,02,31,18.40
2009,08,01,02,32,18.40
2009,08,01,02,33,18.40
2009,08,01,02,34,18.30
2009,08,01,02,35,18.30
2009,08,01,02,36,18.30
2009,08,01,02,37,18.30
2009,08,01,02,38,18.30
2009,08,01,02,39,18.30
2009,08,01,02,40,18.30
2009,08,01,02,41,18.30
2009,08,01,02,42,18.30
2009,08,01,02,43,18.20
2009,08,01,02,44,18.20
2009,08,01,02,45,18.20
2009,08,01,02,46,18.20
2009,08,01,02,47,18.10
2009,08,01,02,48,18.10
2009,08,01,02,49,18.10
2009,08,01,02,50,18.10
2009,08,01,02,51,18.10
2009,08,01,02,52,18.10
2009,08,01,02,53,18.10
2009,08,01,02,54,18.10
2009,08,01,02,55,18.00
2009,08,01,02,56,18.00
2009,08,01,02,57,18.10
2009,08,01,02,58,18.10
2009,08,01,02,59,18.10
2009,08,01,03,00,18.10
2009,08,01,03,01,18.10
2009,08,01,03,02,18.10
2009,08,01,03,03,18.10
2009,08,01,03,04,18.10
2009,08,01,03,05,18.10
2009,08,01,03,06,18.10
2009,08,01,03,07,18.10
2009,08,01,03,08,18.10
2009,08,01,03,09,18.10
2009,08,01,03,10,18.10
2009,08,01,03,11,18.10
2009,08,01,03,12,18.10
2009,08,01,03,13,18.10
2009,08,01,03,14,18.10
2009,08,01,03,15,18.10
2009,08,01,03,16,18.10
2009,08,01,03,17,18.10
2009,08,01,03,18,18.10
2009,08,01,03,19,18.10
2009,08,01,03,20,18.10
2009,08,01,03,21,18.00
2009,08,01,03,22,18.10
2009,08,01,03,23,18.10
2009,08,01,03,24,18.10
2009,08,01,03,25,18.10
2009,08,01,03,26,18.10
2009,08,01,03,27,18.10
2009,08,01,03,28,18.10
2009,08,01,03,29,18.10
2009,08,01,03,30,18.10
2009,08,01,03,31,18.10
2009,08,01,03,32,18.10
2009,08,01,03,33,18.10
2009,08,01,03,34,18.10
2009,08,01,03,35,18.10
2009,08,01,03,36,18.00
2009,08,01,03,37,18.00
2009,08,01,03,38,18.00
2009,08,01,03,39,18.00
2009,08,01,03,40,17.90
2009,08,01,03,41,18.00
2009,08,01,03,42,17.90
2009,08,01,03,43,17.90
2009,08,01,03,44,17.90
2009,08,01,03,45,17.90
2009,08,01,03,46,17.90
2009,08,01,03,47,17.90
2009,08,01,03,48,17.90
2009,08,01,03,49,17.80
2009,08,01,03,50,17.80
2009,08,01,03,51,17.80
2009,08,01,03,52,17.80
2009,08,01,03,53,17.80
2009,08,01,03,54,17.70
2009,08,01,03,55,17.70
2009,08,01,03,56,17.70
2009,08,01,03,57,17.70
2009,08,01,03,58,17.70
2009,08,01,03,59,17.70
2009,08,01,04,00,17.70
2009,08,01,04,01,17.60
2009,08,01,04,02,17.60
2009,08,01,04,03,17.60
2009,08,01,04,04,17.60
2009,08,01,04,05,17.60
2009,08,01,04,06,17.60
2009,08,01,04,07,17.50
2009,08,01,04,08,17.50
2009,08,01,04,09,17.50
2009,08,01,04,10,17.50
2009,08,01,04,11,17.40
2009,08,01,04,12,17.40
2009,08,01,04,13,17.40
2009,08,01,04,14,17.40
2009,08,01,04,15,17.40
2009,08,01,04,16,17.40
2009,08,01,04,17,17.40
2009,08,01,04,18,17.40
2009,08,01,04,19,17.40
2009,08,01,04,20,17.40
2009,08,01,04,21,17.30
2009,08,01,04,22,17.30
2009,08,01,04,23,17.30
2009,08,01,04,24,17.30
2009,08,01,04,25,17.30
2009,08,01,04,26,17.30
2009,08,01,04,27,17.30
2009,08,01,04,28,17.20
2009,08,01,04,29,17.20
2009,08,01,04,30,17.20
2009,08,01,04,31,17.20
2009,08,01,04,32,17.20
2009,08,01,04,33,17.20
2009,08,01,04,34,17.20
2009,08,01,04,35,17.20
2009,08,01,04,36,17.20
2009,08,01,04,37,17.20
2009,08,01,04,38,17.20
2009,08,01,04,39,17.20
2009,08,01,04,40,17.20
2009,08,01,04,41,17.20
2009,08,01,04,42,17.20
2009,08,01,04,43,17.20
2009,08,01,04,44,17.20
2009,08,01,04,45,17.20
2009,08,01,04,46,17.20
2009,08,01,04,47,17.10
2009,08,01,04,48,17.10
2009,08,01,04,49,17.10
2009,08,01,04,50,17.10
2009,08,01,04,51,17.10
2009,08,01,04,52,17.10
2009,08,01,04,53,17.10
2009,08,01,04,54,17.10
2009,08,01,04,55,17.10
2009,08,01,04,56,17.10
2009,08,01,04,57,17.10
2009,08,01,04,58,17.10
2009,08,01,04,59,17.10
2009,08,01,05,00,17.10
2009,08,01,05,01,17.10
2009,08,01,05,02,17.00
2009,08,01,05,03,17.10
2009,08,01,05,04,17.10
2009,08,01,05,05,17.10
2009,08,01,05,06,17.10
2009,08,01,05,07,17.10
2009,08,01,05,08,17.00
2009,08,01,05,09,17.00
2009,08,01,05,10,17.00
2009,08,01,05,11,17.00
2009,08,01,05,12,17.00
2009,08,01,05,13,17.00
2009,08,01,05,14,16.90
2009,08,01,05,15,16.90
2009,08,01,05,16,16.90
2009,08,01,05,17,16.90
2009,08,01,05,18,16.90
2009,08,01,05,19,16.90
2009,08,01,05,20,16.80
2009,08,01,05,21,16.80
2009,08,01,05,22,16.80
2009,08,01,05,23,16.80
2009,08,01,05,24,16.80
2009,08,01,05,25,16.80
2009,08,01,05,26,16.80
2009,08,01,05,27,16.80
2009,08,01,05,28,16.80
2009,08,01,05,29,16.80
2009,08,01,05,30,16.80
2009,08,01,05,31,16.80
2009,08,01,05,32,16.80
2009,08,01,05,33,16.80
2009,08,01,05,34,16.80
2009,08,01,05,35,16.80
2009,08,01,05,36,16.80
2009,08,01,05,37,16.80
2009,08,01,05,38,16.80
2009,08,01,05,39,16.80
2009,08,01,05,40,16.90
2009,08,01,05,41,16.90
2009,08,01,05,42,16.90
2009,08,01,05,43,16.90
2009,08,01,05,44,16.90
2009,08,01,05,45,16.90
2009,08,01,05,46,16.90
2009,08,01,05,47,17.00
2009,08,01,05,48,17.00
2009,08,01,05,49,17.00
2009,08,01,05,50,17.00
2009,08,01,05,51,17.00
2009,08,01,05,52,17.00
2009,08,01,05,53,17.00
2009,08,01,05,54,17.00
2009,08,01,05,55,17.00
2009,08,01,05,56,17.00
2009,08,01,05,57,17.00
2009,08,01,05,58,17.10
2009,08,01,05,59,17.10
2009,08,01,06,00,17.10
2009,08,01,06,01,17.10
2009,08,01,06,02,17.10
2009,08,01,06,03,17.10
2009,08,01,06,04,17.10
2009,08,01,06,05,17.10
2009,08,01,06,06,17.10
2009,08,01,06,07,17.10
2009,08,01,06,08,17.10
2009,08,01,06,09,17.10
2009,08,01,06,10,17.10
2009,08,01,06,11,17.10
2009,08,01,06,12,17.10
2009,08,01,06,13,17.10
2009,08,01,06,14,17.10
2009,08,01,06,15,17.10
2009,08,01,06,16,17.10
2009,08,01,06,17,17.10
2009,08,01,06,18,17.10
2009,08,01,06,19,17.10
2009,08,01,06,20,17.10
2009,08,01,06,21,17.10
2009,08,01,06,22,17.20
2009,08,01,06,23,17.20
2009,08,01,06,24,17.20
2009,08,01,06,25,17.20
2009,08,01,06,26,17.20
2009,08,01,06,27,17.20
2009,08,01,06,28,17.20
2009,08,01,06,29,17.20
2009,08,01,06,30,17.20
2009,08,01,06,31,17.20
2009,08,01,06,32,17.30
2009,08,01,06,33,17.30
2009,08,01,06,34,17.30
2009,08,01,06,35,17.30
2009,08,01,06,36,17.30
2009,08,01,06,37,17.30
2009,08,01,06,38,17.30
2009,08,01,06,39,17.30
2009,08,01,06,40,17.30
2009,08,01,06,41,17.30
2009,08,01,06,42,17.30
2009,08,01,06,43,17.30
2009,08,01,06,44,17.30
2009,08,01,06,45,17.30
2009,08,01,06,46,17.30
2009,08,01,06,47,17.30
2009,08,01,06,48,17.30
2009,08,01,06,49,17.40
2009,08,01,06,50,17.40
2009,08,01,06,51,17.40
2009,08,01,06,52,17.40
2009,08,01,06,53,17.40
2009,08,01,06,54,17.40
2009,08,01,06,55,17.50
2009,08,01,06,56,17.50
2009,08,01,06,57,17.50
2009,08,01,06,58,17.50
2009,08,01,06,59,17.50
2009,08,01,07,00,17.50
2009,08,01,07,01,17.60
2009,08,01,07,02,17.60
2009,08,01,07,03,17.60
2009,08,01,07,04,17.60
2009,08,01,07,05,17.60
2009,08,01,07,06,17.70
2009,08,01,07,07,17.70
2009,08,01,07,08,17.70
2009,08,01,07,09,17.70
2009,08,01,07,10,17.70
2009,08,01,07,11,17.70
2009,08,01,07,12,17.70
2009,08,01,07,13,17.70
2009,08,01,07,14,17.70
2009,08,01,07,15,17.70
2009,08,01,07,16,17.70
2009,08,01,07,17,17.70
2009,08,01,07,18,17.70
2009,08,01,07,19,17.70
2009,08,01,07,20,17.70
2009,08,01,07,21,17.70
2009,08,01,07,22,17.70
2009,08,01,07,23,17.70
2009,08,01,07,24,17.70
2009,08,01,07,25,17.80
2009,08,01,07,26,17.80
2009,08,01,07,27,17.80
2009,08,01,07,28,17.80
2009,08,01,07,29,17.80
2009,08,01,07,30,17.90
2009,08,01,07,31,17.90
2009,08,01,07,32,17.90
2009,08,01,07,33,17.90
2009,08,01,07,34,17.90
2009,08,01,07,35,18.00
2009,08,01,07,36,18.00
2009,08,01,07,37,18.00
2009,08,01,07,38,18.00
2009,08,01,07,39,18.10
2009,08,01,07,40,18.10
2009,08,01,07,41,18.10
2009,08,01,07,42,18.20
2009,08,01,07,43,18.20
2009,08,01,07,44,18.30
2009,08,01,07,45,18.30
2009,08,01,07,46,18.30
2009,08,01,07,47,18.30
2009,08,01,07,48,18.40
2009,08,01,07,49,18.40
2009,08,01,07,50,18.40
2009,08,01,07,51,18.40
2009,08,01,07,52,18.50
2009,08,01,07,53,18.50
2009,08,01,07,54,18.60
2009,08,01,07,55,18.60
2009,08,01,07,56,18.60
2009,08,01,07,57,18.70
2009,08,01,07,58,18.70
2009,08,01,07,59,18.70
2009,08,01,08,00,18.70
2009,08,01,08,01,18.70
2009,08,01,08,02,18.80
2009,08,01,08,03,18.80
2009,08,01,08,04,18.80
2009,08,01,08,05,18.90
2009,08,01,08,06,18.90
2009,08,01,08,07,18.90
2009,08,01,08,08,18.90
2009,08,01,08,09,18.90
2009,08,01,08,10,19.00
2009,08,01,08,11,19.00
2009,08,01,08,12,19.10
2009,08,01,08,13,19.10
2009,08,01,08,14,19.10
2009,08,01,08,15,19.10
2009,08,01,08,16,19.10
2009,08,01,08,17,19.20
2009,08,01,08,18,19.20
2009,08,01,08,19,19.30
2009,08,01,08,20,19.30
2009,08,01,08,21,19.30
2009,08,01,08,22,19.40
2009,08,01,08,23,19.40
2009,08,01,08,24,19.40
2009,08,01,08,25,19.50
2009,08,01,08,26,19.60
2009,08,01,08,27,19.60
2009,08,01,08,28,19.70
2009,08,01,08,29,19.70
2009,08,01,08,30,19.80
2009,08,01,08,31,19.80
2009,08,01,08,32,19.90
2009,08,01,08,33,20.00
2009,08,01,08,34,20.10
2009,08,01,08,35,20.20
2009,08,01,08,36,20.30
2009,08,01,08,37,20.30
2009,08,01,08,38,20.40
2009,08,01,08,39,20.50
2009,08,01,08,40,20.70
2009,08,01,08,41,20.80
2009,08,01,08,42,21.00
2009,08,01,08,43,21.10
2009,08,01,08,44,21.30
2009,08,01,08,45,21.40
2009,08,01,08,46,21.50
2009,08,01,08,47,21.60
2009,08,01,08,48,21.60
2009,08,01,08,49,21.70
2009,08,01,08,50,21.80
2009,08,01,08,51,21.90
2009,08,01,08,52,22.00
2009,08,01,08,53,22.10
2009,08,01,08,54,22.20
2009,08,01,08,55,22.20
2009,08,01,08,56,22.20
2009,08,01,08,57,22.30
2009,08,01,08,58,22.30
2009,08,01,08,59,22.40
2009,08,01,09,00,22.40
2009,08,01,09,01,22.50
2009,08,01,09,02,22.60
2009,08,01,09,03,22.70
2009,08,01,09,04,22.80
2009,08,01,09,05,22.90
2009,08,01,09,06,23.00
2009,08,01,09,07,23.00
2009,08,01,09,08,23.10
2009,08,01,09,09,23.10
2009,08,01,09,10,23.10
2009,08,01,09,11,23.20
2009,08,01,09,12,23.20
2009,08,01,09,13,23.20
2009,08,01,09,14,23.30
2009,08,01,09,15,23.30
2009,08,01,09,16,23.30
2009,08,01,09,17,23.30
2009,08,01,09,18,23.30
2009,08,01,09,19,23.40
2009,08,01,09,20,23.40
2009,08,01,09,21,23.40
2009,08,01,09,22,23.50
2009,08,01,09,23,23.60
2009,08,01,09,24,23.60
2009,08,01,09,25,23.60
2009,08,01,09,26,23.70
2009,08,01,09,27,23.80
2009,08,01,09,28,23.80
2009,08,01,09,29,23.90
2009,08,01,09,30,24.00
2009,08,01,09,31,24.10
2009,08,01,09,32,24.10
2009,08,01,09,33,24.20
2009,08,01,09,34,24.30
2009,08,01,09,35,24.30
2009,08,01,09,36,24.30
2009,08,01,09,37,24.30
2009,08,01,09,38,24.40
2009,08,01,09,39,24.40
2009,08,01,09,40,24.40
2009,08,01,09,41,24.50
2009,08,01,09,42,24.50
2009,08,01,09,43,24.50
2009,08,01,09,44,24.60
2009,08,01,09,45,24.60
2009,08,01,09,46,24.70
2009,08,01,09,47,24.70
2009,08,01,09,48,24.80
2009,08,01,09,49,24.80
2009,08,01,09,50,24.80
2009,08,01,09,51,24.90
2009,08,01,09,52,24.90
2009,08,01,09,53,24.90
2009,08,01,09,54,24.90
2009,08,01,09,55,25.00
2009,08,01,09,56,25.00
2009,08,01,09,57,25.00
2009,08,01,09,58,25.00
2009,08,01,09,59,25.00
2009,08,01,10,00,25.00
2009,08,01,10,01,25.10
2009,08,01,10,02,25.10
2009,08,01,10,03,25.10
2009,08,01,10,04,25.10
2009,08,01,10,05,25.20
2009,08,01,10,06,25.20
2009,08,01,10,07,25.20
2009,08,01,10,08,25.20
2009,08,01,10,09,25.20
2009,08,01,10,10,25.20
2009,08,01,10,11,25.10
2009,08,01,10,12,25.00
2009,08,01,10,13,24.90
2009,08,01,10,14,24.90
2009,08,01,10,15,24.90
2009,08,01,10,16,24.90
2009,08,01,10,17,24.90
2009,08,01,10,18,25.00
2009,08,01,10,19,25.00
2009,08,01,10,20,25.10
2009,08,01,10,21,25.10
2009,08,01,10,22,25.20
2009,08,01,10,23,25.20
2009,08,01,10,24,25.20
2009,08,01,10,25,25.30
2009,08,01,10,26,25.40
2009,08,01,10,27,25.40
2009,08,01,10,28,25.40
2009,08,01,10,29,25.50
2009,08,01,10,30,25.60
2009,08,01,10,31,25.60
2009,08,01,10,32,25.70
2009,08,01,10,33,25.70
2009,08,01,10,34,25.80
2009,08,01,10,35,25.80
2009,08,01,10,36,25.80
2009,08,01,10,37,25.90
2009,08,01,10,38,25.90
2009,08,01,10,39,25.90
2009,08,01,10,40,26.00
2009,08,01,10,41,26.10
2009,08,01,10,42,26.10
2009,08,01,10,43,26.10
2009,08,01,10,44,26.20
2009,08,01,10,45,26.20
2009,08,01,10,46,26.30
2009,08,01,10,47,26.30
2009,08,01,10,48,26.30
2009,08,01,10,49,26.30
2009,08,01,10,50,26.40
2009,08,01,10,51,26.40
2009,08,01,10,52,26.50
2009,08,01,10,53,26.50
2009,08,01,10,54,26.50
2009,08,01,10,55,26.50
2009,08,01,10,56,26.60
2009,08,01,10,57,26.60
2009,08,01,10,58,26.60
2009,08,01,10,59,26.60
2009,08,01,11,00,26.60
2009,08,01,11,01,26.70
2009,08,01,11,02,26.70
2009,08,01,11,03,26.70
2009,08,01,11,04,26.80
2009,08,01,11,05,26.80
2009,08,01,11,06,26.80
2009,08,01,11,07,26.80
2009,08,01,11,08,26.80
2009,08,01,11,09,26.80
2009,08,01,11,10,26.80
2009,08,01,11,11,26.80
2009,08,01,11,12,26.80
2009,08,01,11,13,26.80
2009,08,01,11,14,26.70
2009,08,01,11,15,26.70
2009,08,01,11,16,26.70
2009,08,01,11,17,26.60
2009,08,01,11,18,26.60
2009,08,01,11,19,26.50
2009,08,01,11,20,26.50
2009,08,01,11,21,26.50
2009,08,01,11,22,26.50
2009,08,01,11,23,26.50
2009,08,01,11,24,26.40
2009,08,01,11,25,26.40
2009,08,01,11,26,26.40
2009,08,01,11,27,26.40
2009,08,01,11,28,26.40
2009,08,01,11,29,26.50
2009,08,01,11,30,26.50
2009,08,01,11,31,26.50
2009,08,01,11,32,26.60
2009,08,01,11,33,26.70
2009,08,01,11,34,26.70
2009,08,01,11,35,26.80
2009,08,01,11,36,26.80
2009,08,01,11,37,26.90
2009,08,01,11,38,26.90
2009,08,01,11,39,27.00
2009,08,01,11,40,27.00
2009,08,01,11,41,27.00
2009,08,01,11,42,27.00
2009,08,01,11,43,27.00
2009,08,01,11,44,27.00
2009,08,01,11,45,27.10
2009,08,01,11,46,27.10
2009,08,01,11,47,27.10
2009,08,01,11,48,27.10
2009,08,01,11,49,27.10
2009,08,01,11,50,27.20
2009,08,01,11,51,27.20
2009,08,01,11,52,27.10
2009,08,01,11,53,27.10
2009,08,01,11,54,27.10
2009,08,01,11,55,27.10
2009,08,01,11,56,27.10
2009,08,01,11,57,27.10
2009,08,01,11,58,27.20
2009,08,01,11,59,27.10
2009,08,01,12,00,27.10
2009,08,01,12,01,27.20
2009,08,01,12,02,27.20
2009,08,01,12,03,27.20
2009,08,01,12,04,27.20
2009,08,01,12,05,27.20
2009,08,01,12,06,27.10
2009,08,01,12,07,27.10
2009,08,01,12,08,27.10
2009,08,01,12,09,27.10
2009,08,01,12,10,27.00
2009,08,01,12,11,27.00
2009,08,01,12,12,26.90
2009,08,01,12,13,26.90
2009,08,01,12,14,26.90
2009,08,01,12,15,26.80
2009,08,01,12,16,26.70
2009,08,01,12,17,26.70
2009,08,01,12,18,26.70
2009,08,01,12,19,26.70
2009,08,01,12,20,26.70
2009,08,01,12,21,26.70
2009,08,01,12,22,26.70
2009,08,01,12,23,26.70
2009,08,01,12,24,26.70
2009,08,01,12,25,26.80
2009,08,01,12,26,26.90
2009,08,01,12,27,26.90
2009,08,01,12,28,27.00
2009,08,01,12,29,27.10
2009,08,01,12,30,27.10
2009,08,01,12,31,27.20
2009,08,01,12,32,27.20
2009,08,01,12,33,27.20
2009,08,01,12,34,27.30
2009,08,01,12,35,27.40
2009,08,01,12,36,27.40
2009,08,01,12,37,27.40
2009,08,01,12,38,27.40
2009,08,01,12,39,27.40
2009,08,01,12,40,27.40
2009,08,01,12,41,27.50
2009,08,01,12,42,27.60
2009,08,01,12,43,27.70
2009,08,01,12,44,27.70
2009,08,01,12,45,27.80
2009,08,01,12,46,27.80
2009,08,01,12,47,27.80
2009,08,01,12,48,27.90
2009,08,01,12,49,27.90
2009,08,01,12,50,28.00
2009,08,01,12,51,28.00
2009,08,01,12,52,28.10
2009,08,01,12,53,28.20
2009,08,01,12,54,28.30
2009,08,01,12,55,28.30
2009,08,01,12,56,28.30
2009,08,01,12,57,28.40
2009,08,01,12,58,28.50
2009,08,01,12,59,28.50
2009,08,01,13,00,28.60
2009,08,01,13,01,28.70
2009,08,01,13,02,28.70
2009,08,01,13,03,28.70
2009,08,01,13,04,28.60
2009,08,01,13,05,28.60
2009,08,01,13,06,28.50
2009,08,01,13,07,28.40
2009,08,01,13,08,28.30
2009,08,01,13,09,28.20
2009,08,01,13,10,28.10
2009,08,01,13,11,28.10
2009,08,01,13,12,28.10
2009,08,01,13,13,28.10
2009,08,01,13,14,28.10
2009,08,01,13,15,28.10
2009,08,01,13,16,28.00
2009,08,01,13,17,28.00
2009,08,01,13,18,28.10
2009,08,01,13,19,28.00
2009,08,01,13,20,28.00
2009,08,01,13,21,28.00
2009,08,01,13,22,28.10
2009,08,01,13,23,28.20
2009,08,01,13,24,28.20
2009,08,01,13,25,28.30
2009,08,01,13,26,28.40
2009,08,01,13,27,28.50
2009,08,01,13,28,28.60
2009,08,01,13,29,28.60
2009,08,01,13,30,28.60
2009,08,01,13,31,28.70
2009,08,01,13,32,28.70
2009,08,01,13,33,28.70
2009,08,01,13,34,28.70
2009,08,01,13,35,28.70
2009,08,01,13,36,28.70
2009,08,01,13,37,28.70
2009,08,01,13,38,28.60
2009,08,01,13,39,28.60
2009,08,01,13,40,28.60
2009,08,01,13,41,28.60
2009,08,01,13,42,28.70
2009,08,01,13,43,28.70
2009,08,01,13,44,28.80
2009,08,01,13,45,28.80
2009,08,01,13,46,28.90
2009,08,01,13,47,28.90
2009,08,01,13,48,29.00
2009,08,01,13,49,29.10
2009,08,01,13,50,29.20
2009,08,01,13,51,29.20
2009,08,01,13,52,29.20
2009,08,01,13,53,29.20
2009,08,01,13,54,29.20
2009,08,01,13,55,29.20
2009,08,01,13,56,29.10
2009,08,01,13,57,29.00
2009,08,01,13,58,28.90
2009,08,01,13,59,28.90
2009,08,01,14,00,28.80
2009,08,01,14,01,28.70
2009,08,01,14,02,28.60
2009,08,01,14,03,28.50
2009,08,01,14,04,28.50
2009,08,01,14,05,28.60
2009,08,01,14,06,28.50
2009,08,01,14,07,28.40
2009,08,01,14,08,28.40
2009,08,01,14,09,28.40
2009,08,01,14,10,28.40
2009,08,01,14,11,28.30
2009,08,01,14,12,28.30
2009,08,01,14,13,28.30
2009,08,01,14,14,28.30
2009,08,01,14,15,28.30
2009,08,01,14,16,28.40
2009,08,01,14,17,28.40
2009,08,01,14,18,28.50
2009,08,01,14,19,28.50
2009,08,01,14,20,28.60
2009,08,01,14,21,28.60
2009,08,01,14,22,28.60
2009,08,01,14,23,28.60
2009,08,01,14,24,28.50
2009,08,01,14,25,28.40
2009,08,01,14,26,28.40
2009,08,01,14,27,28.40
2009,08,01,14,28,28.40
2009,08,01,14,29,28.40
2009,08,01,14,30,28.40
2009,08,01,14,31,28.40
2009,08,01,14,32,28.40
2009,08,01,14,33,28.30
2009,08,01,14,34,28.30
2009,08,01,14,35,28.30
2009,08,01,14,36,28.40
2009,08,01,14,37,28.40
2009,08,01,14,38,28.40
2009,08,01,14,39,28.40
2009,08,01,14,40,28.50
2009,08,01,14,41,28.60
2009,08,01,14,42,28.80
2009,08,01,14,43,28.90
2009,08,01,14,44,29.00
2009,08,01,14,45,29.10
2009,08,01,14,46,29.20
2009,08,01,14,47,29.20
2009,08,01,14,48,29.20
2009,08,01,14,49,29.30
2009,08,01,14,50,29.40
2009,08,01,14,51,29.40
2009,08,01,14,52,29.40
2009,08,01,14,53,29.40
2009,08,01,14,54,29.40
2009,08,01,14,55,29.40
2009,08,01,14,56,29.30
2009,08,01,14,57,29.30
2009,08,01,14,58,29.30
2009,08,01,14,59,29.40
2009,08,01,15,00,29.40
2009,08,01,15,01,29.50
2009,08,01,15,02,29.50
2009,08,01,15,03,29.50
2009,08,01,15,04,29.50
2009,08,01,15,05,29.40
2009,08,01,15,06,29.40
2009,08,01,15,07,29.30
2009,08,01,15,08,29.30
2009,08,01,15,09,29.30
2009,08,01,15,10,29.30
2009,08,01,15,11,29.10
2009,08,01,15,12,29.00
2009,08,01,15,13,28.90
2009,08,01,15,14,28.80
2009,08,01,15,15,28.70
2009,08,01,15,16,28.50
2009,08,01,15,17,28.50
2009,08,01,15,18,28.30
2009,08,01,15,19,28.30
2009,08,01,15,20,28.40
2009,08,01,15,21,28.40
2009,08,01,15,22,28.60
2009,08,01,15,23,28.70
2009,08,01,15,24,28.80
2009,08,01,15,25,29.00
2009,08,01,15,26,29.10
2009,08,01,15,27,29.20
2009,08,01,15,28,29.30
2009,08,01,15,29,29.40
2009,08,01,15,30,29.50
2009,08,01,15,31,29.50
2009,08,01,15,32,29.50
2009,08,01,15,33,29.50
2009,08,01,15,34,29.40
2009,08,01,15,35,29.30
2009,08,01,15,36,29.30
2009,08,01,15,37,29.30
2009,08,01,15,38,29.20
2009,08,01,15,39,29.10
2009,08,01,15,40,28.90
2009,08,01,15,41,28.80
2009,08,01,15,42,28.60
2009,08,01,15,43,28.50
2009,08,01,15,44,28.50
2009,08,01,15,45,28.40
2009,08,01,15,46,28.30
2009,08,01,15,47,28.20
2009,08,01,15,48,28.10
2009,08,01,15,49,28.10
2009,08,01,15,50,28.10
2009,08,01,15,51,28.10
2009,08,01,15,52,28.10
2009,08,01,15,53,28.10
2009,08,01,15,54,28.20
2009,08,01,15,55,28.20
2009,08,01,15,56,28.20
2009,08,01,15,57,28.30
2009,08,01,15,58,28.30
2009,08,01,15,59,28.40
2009,08,01,16,00,28.50
2009,08,01,16,01,28.60
2009,08,01,16,02,28.70
2009,08,01,16,03,28.80
2009,08,01,16,04,28.90
2009,08,01,16,05,29.00
2009,08,01,16,06,29.10
2009,08,01,16,07,29.10
2009,08,01,16,08,29.10
2009,08,01,16,09,29.00
2009,08,01,16,10,29.00
2009,08,01,16,11,29.00
2009,08,01,16,12,28.90
2009,08,01,16,13,28.80
2009,08,01,16,14,28.80
2009,08,01,16,15,28.80
2009,08,01,16,16,28.80
2009,08,01,16,17,28.80
2009,08,01,16,18,28.70
2009,08,01,16,19,28.70
2009,08,01,16,20,28.70
2009,08,01,16,21,28.70
2009,08,01,16,22,28.70
2009,08,01,16,23,28.80
2009,08,01,16,24,28.80
2009,08,01,16,25,28.80
2009,08,01,16,26,28.70
2009,08,01,16,27,28.70
2009,08,01,16,28,28.80
2009,08,01,16,29,28.80
2009,08,01,16,30,28.80
2009,08,01,16,31,28.90
2009,08,01,16,32,28.90
2009,08,01,16,33,28.90
2009,08,01,16,34,28.90
2009,08,01,16,35,29.00
2009,08,01,16,36,29.10
2009,08,01,16,37,29.10
2009,08,01,16,38,29.10
2009,08,01,16,39,29.10
2009,08,01,16,40,29.00
2009,08,01,16,41,28.90
2009,08,01,16,42,28.80
2009,08,01,16,43,28.70
2009,08,01,16,44,28.70
2009,08,01,16,45,28.70
2009,08,01,16,46,28.70
2009,08,01,16,47,28.50
2009,08,01,16,48,28.40
2009,08,01,16,49,28.30
2009,08,01,16,50,28.30
2009,08,01,16,51,28.30
2009,08,01,16,52,28.20
2009,08,01,16,53,28.30
2009,08,01,16,54,28.30
2009,08,01,16,55,28.30
2009,08,01,16,56,28.30
2009,08,01,16,57,28.30
2009,08,01,16,58,28.30
2009,08,01,16,59,28.30
2009,08,01,17,00,28.40
2009,08,01,17,01,28.30
2009,08,01,17,02,28.30
2009,08,01,17,03,28.30
2009,08,01,17,04,28.30
2009,08,01,17,05,28.30
2009,08,01,17,06,28.40
2009,08,01,17,07,28.50
2009,08,01,17,08,28.60
2009,08,01,17,09,28.80
2009,08,01,17,10,28.90
2009,08,01,17,11,29.10
2009,08,01,17,12,29.20
2009,08,01,17,13,29.30
2009,08,01,17,14,29.40
2009,08,01,17,15,29.40
2009,08,01,17,16,29.40
2009,08,01,17,17,29.50
2009,08,01,17,18,29.50
2009,08,01,17,19,29.60